THORAD AGENA D DEB, 42492

Orbit data source: Space-Track

THORAD AGENA D DEB, 42492 is space debris in SSO originally from a launch on Wed, 08 Apr 1970 UTC launched from the Air Force Western Test Range (AFWTR). Debris objects in space refer to the collection of defunct objects orbiting the Earth. Examples of debris include non-operational satellites, rocket bodies, and fragments generated from explosions, collisions, or faulty payload assembly.

Loading next visibility...
Identifier
42492, 1970-025QW
Orbit
SSO
Country
Flag of USUS
Related business
Manufacturer
Unknown
Mission
Spacecraft
Bus & Motor
Unknown
Mass
Unknown
Launch date (UTC)
1970-04-08 (56 years ago)
Launch vehicle
Unknown
Launch site
Air Force Western Test Range (AFWTR)
Object type
Payload
Rocket body
Debris
Shape & HBR
Unknown shape, 0.1 m
Radar Cross Section
Small (<0.1 m²)

Expand to show TLE details & history
Last TLE update: 3 days ago

TLE from 3 days ago
0 THORAD AGENA D DEB
1 42492U 70025QW  26205.39103304  .00000270  00000-0  39746-3 0  9994
2 42492  99.2859  52.0617 0006731  15.6936 109.0669 13.63019654617679
Epoch: 2026-07-24T09:23Z
TLE epoch observation values (Epoch: 2026-07-24T09:23:05.254Z)
Latitude
54.20006°
Longitude
162.20573°
Altitude
1,035.217 km
Speed
7.339 km/s
True Right ascension
16h 20m 23s
True Declination
54° 02' 34"
Sunlit
Object was in daylight at epoch
Visualization orbit readout
Latitude
Unknown
Longitude
Unknown
Altitude
Unknown
Speed
Unknown
Apparent Right ascension
Unknown
Apparent Declination
Unknown
Sunlit
N/A
Visualization observer readout
Local Sidereal Time
07:37:21
Azimuth
Unknown
Elevation
Unknown
Doppler factor
Unknown
Orbital elements
Apogee altitude
1,026.982 km
Perigee altitude
1,017.02 km
Semi-major axis
7,400.138 km
Eccentricity
0.00067
Inclination
99.2859°
RAAN
52.0617°
Arg. of periapsis
15.6936°
True anomaly
109.13978°
Mean anomaly
109.0669°
Eccentric anomaly
109.10334°
Mean motion
3.40944 °/min
Orbital period
105.59 mins
BSTAR
0.00039746
Loading maneuver chart data...
Computing Atmospheric mass density...

Documentation

Showing up to 5 results
|